Weather in Staroye Drakino

Russia / Republic of Mordovia     53°53′42″N   43°56′54″E
temp.,
°C
wind,
m/s
gust,
m/s
humid.,
%
clouds,
%
prec.,
mm/h
press.,
hPa
HPBL,
m
4 march, thu
thu400:00−4wsw6129499 0.1 1009419
03:00−3wsw6129499 0.1 1007617
06:00−2wsw71394100 0.2 1005795
09:00−1wsw81492100 0.3 1002921
12:00+1wsw91590100 0.6 1000952
15:00+1wsw91588100 0.6 10001053
18:00−1wsw71296100 0.3 1000676
21:00−2wsw51097100 1.5 1000491
5 march, fri
fri500:00−3n2498100 2.3 1000195
03:00−4n2298100 3.4 100182
06:00−4nnw2397100 0.7 100269
09:00−5nnw3495100 1.1 1005266
12:00−4nw348995 0.1 1007439
15:00−4wnw348868 0.1 1009512
18:00−7wsw34918 0.0 101036
21:00−9wsw479421 0.0 1013145
6 march, sat
sat600:00−11w35966 0.0 101487
03:00−12w339517 0.0 101526
06:00−15nw229620 0.0 101620
09:00−12nnw119443 0.0 101782
12:00−8ne127953 0.0 1017325
15:00−7e117427 0.0 1016446
18:00−13s11860 0.0 101521
21:00−14ssw22850 0.0 101620
7 march, sun
sun700:00−13sw239582 0.0 101536
03:00−11sw379591 0.3 1015175
06:00−13wsw369792 0.1 1014129
09:00−11sw5109274 0.1 1013354
12:00−7sw8138461 0.0 1009668
15:00−5sw9158481 0.0 10061084
18:00−5sw101792100 0.3 10021154
21:00−4sw91693100 1.6 9991077
8 march, mon
mon800:00−7w61281100 0.6 1000481
03:00−12wsw488659 0.6 1002137
06:00−13ssw510790 0.0 1002169
09:00−9ssw612760 0.0 1000337
12:00−4sw5990100 0.3 997840
15:00−6w101573100 1.4 9981500
18:00−9w7149156 0.1 1002748
21:00−10wnw8158669 0.1 1006727